DW8871 Weather Reports


Display with metric or nautical units.
time (UTC)temp
F
wind
direction
speed
MPH
gust
MPH
rain 1hr
in
rain 24hr
in
rain mn
in
humidity
%
barometer
mb
20260831103034 78 263 3.0 9.0 0.00 0.00 0.00 63 1013.7
20260831101549 78 298 4.0 11.0 0.00 0.00 0.00 62 1013.3
20260831100052 79 267 5.0 8.0 0.00 0.00 0.00 63 1012.3
20260831100034 78 281 4.0 9.0 0.00 0.00 0.00 62 1013.3
20260831094535 78 269 4.0 11.0 0.00 0.00 0.00 63 1013.0
20260831093039 78 256 3.0 9.0 0.00 0.00 0.00 64 1012.9
20260831091551 78 252 4.0 10.0 0.00 0.00 0.00 63 1013.0
20260831090037 78 247 5.0 11.0 0.00 0.00 0.00 63 1012.7
20260831090023 79 268 5.0 10.0 0.00 0.00 0.00 63 1011.8
20260831084536 78 254 4.0 10.0 0.00 0.00 0.00 62 1012.7
20260831083035 79 240 3.0 7.0 0.00 0.00 0.00 61 1012.8
20260831081539 80 273 3.0 9.0 0.00 0.00 0.00 59 1012.9
20260831080058 80 259 4.0 9.0 0.00 0.00 0.00 59 1012.8
20260831080024 80 271 4.0 8.0 0.00 0.00 0.00 59 1011.8
20260831074535 80 267 2.0 8.0 0.00 0.00 0.00 58 1012.7
20260831073101 81 287 3.0 9.0 0.00 0.00 0.00 57 1012.6
20260831071546 82 282 3.0 7.0 0.00 0.00 0.00 56 1012.6
20260831070036 82 269 3.0 9.0 0.00 0.00 0.00 54 1012.6
20260831070032 83 257 3.0 8.0 0.00 0.00 0.00 55 1011.5
20260831064541 83 263 3.0 10.0 0.00 0.00 0.00 54 1012.5
20260831063043 82 269 4.0 9.0 0.00 0.00 0.00 55 1012.5
20260831061536 83 257 4.0 8.0 0.00 0.00 0.00 55 1012.3
20260831060037 83 266 4.0 9.0 0.00 0.00 0.00 54 1012.3
20260831060024 84 259 4.0 8.0 0.00 0.00 0.00 55 1011.2
20260831054535 84 260 3.0 10.0 0.00 0.00 0.00 54 1012.2
20260831053040 84 256 4.0 9.0 0.00 0.00 0.00 54 1012.2
20260831051539 84 279 4.0 9.0 0.00 0.00 0.00 54 1012.1
20260831050037 84 300 3.0 11.0 0.00 0.00 0.00 53 1012.1
20260831050016 85 300 4.0 8.0 0.00 0.00 0.00 53 1010.9
20260831044546 85 252 5.0 10.0 0.00 0.00 0.00 52 1011.9
20260831043034 85 284 4.0 12.0 0.00 0.00 0.00 52 1011.9
20260831041544 85 256 5.0 11.0 0.00 0.00 0.00 52 1011.8
20260831040035 85 281 5.0 11.0 0.00 0.00 0.00 52 1011.7
20260831040011 86 265 5.0 10.0 0.00 0.00 0.00 53 1010.7
20260831034533 85 186 5.0 13.0 0.00 0.00 0.00 53 1011.6
20260831033039 86 260 5.0 14.0 0.00 0.00 0.00 52 1011.6
20260831031537 85 265 4.0 11.0 0.00 0.00 0.00 53 1011.5
20260831030037 85 236 3.0 10.0 0.00 0.00 0.00 54 1011.6
20260831030030 85 259 3.0 9.0 0.00 0.00 0.00 55 1010.7
20260831024534 85 267 3.0 9.0 0.00 0.00 0.00 53 1011.6
20260831023034 86 271 2.0 7.0 0.00 0.00 0.00 53 1011.5
20260831021545 86 284 2.0 8.0 0.00 0.00 0.00 53 1011.3
20260831020035 86 273 1.0 6.0 0.00 0.00 0.00 53 1011.1
20260831020026 87 270 2.0 5.0 0.00 0.00 0.00 53 1010.0
20260831014534 87 225 1.0 7.0 0.00 0.00 0.00 53 1010.9
20260831013040 87 195 1.0 4.0 0.00 0.00 0.00 53 1010.7
20260831011544 87 0 0.0 2.0 0.00 0.00 0.00 53 1010.5
20260831010053 88 245 1.0 4.0 0.00 0.00 0.00 53 1010.4
20260831010030 88 275 2.0 4.0 0.00 0.00 0.00 53 1009.4
20260831004534 88 0 0.0 3.0 0.00 0.00 0.00 57 1010.3
20260831003034 91 0 0.0 6.0 0.00 0.00 0.00 52 1010.4
20260831001540 92 272 1.0 7.0 0.00 0.00 0.00 47 1010.4
20260831000038 94 213 2.0 6.0 0.00 0.00 0.00 46 1010.3
20260831000016 94 215 2.0 5.0 0.00 0.00 0.00 46 1009.4
20260830234536 95 245 2.0 7.0 0.00 0.00 0.00 46 1010.1
20260830233034 95 198 3.0 10.0 0.00 0.00 0.00 42 1010.1
20260830231537 96 282 6.0 13.0 0.00 0.00 0.00 42 1010.0
20260830230036 96 270 3.0 11.0 0.00 0.00 0.00 45 1009.9
20260830230026 97 260 3.0 10.0 0.00 0.00 0.00 45 1009.0
20260830224536 97 231 4.0 10.0 0.00 0.00 0.00 44 1009.9
20260830223038 97 261 4.0 12.0 0.00 0.00 0.00 43 1010.0
20260830221536 97 238 5.0 12.0 0.00 0.00 0.00 44 1010.0
20260830220054 98 265 7.0 13.0 0.00 0.00 0.00 43 1009.0
20260830220038 97 267 6.0 14.0 0.00 0.00 0.00 43 1010.0
20260830214537 97 205 5.0 14.0 0.00 0.00 0.00 43 1010.1
20260830213038 97 312 7.0 13.0 0.00 0.00 0.00 44 1010.2
20260830211535 97 282 8.0 18.0 0.00 0.00 0.00 42 1010.4
20260830210035 97 254 7.0 14.0 0.00 0.00 0.00 42 1010.4
20260830210020 98 254 7.0 13.0 0.00 0.00 0.00 43 1009.5
20260830204537 97 242 7.0 16.0 0.00 0.00 0.00 46 1010.7
20260830203034 97 263 6.0 18.0 0.00 0.00 0.00 45 1011.0
20260830201536 96 248 7.0 14.0 0.00 0.00 0.00 45 1011.2
20260830200034 96 273 6.0 14.0 0.00 0.00 0.00 46 1011.4
20260830200029 96 282 6.0 13.0 0.00 0.00 0.00 46 1010.3
20260830194537 95 238 7.0 15.0 0.00 0.00 0.00 46 1011.6
20260830193042 95 271 8.0 17.0 0.00 0.00 0.00 47 1011.8
20260830191533 94 274 7.0 18.0 0.00 0.00 0.00 48 1011.8
20260830190036 93 296 9.0 17.0 0.00 0.00 0.00 47 1012.0
20260830190016 94 296 9.0 16.0 0.00 0.00 0.00 47 1011.0
20260830184534 92 253 8.0 20.0 0.00 0.00 0.00 51 1012.1
20260830183037 92 270 6.0 17.0 0.00 0.00 0.00 51 1012.3
20260830181533 91 306 8.0 13.0 0.00 0.00 0.00 52 1012.3
20260830180039 90 290 6.0 16.0 0.00 0.00 0.00 54 1012.4
20260830180030 91 254 5.0 14.0 0.00 0.00 0.00 54 1011.3
20260830174551 90 241 8.0 16.0 0.00 0.00 0.00 52 1012.5
20260830173037 90 288 9.0 18.0 0.00 0.00 0.00 51 1012.6
20260830171539 89 252 7.0 17.0 0.00 0.00 0.00 56 1012.7
20260830170034 88 279 7.0 15.0 0.00 0.00 0.00 55 1012.9
20260830170025 88 288 6.0 14.0 0.00 0.00 0.00 56 1011.9
20260830164536 87 272 9.0 18.0 0.00 0.00 0.00 55 1013.1
20260830163050 86 286 9.0 18.0 0.00 0.00 0.00 56 1013.1
20260830161550 86 259 9.0 21.0 0.00 0.00 0.00 56 1013.2
20260830160054 85 264 9.0 17.0 0.00 0.00 0.00 59 1012.2
20260830160035 85 235 10.0 18.0 0.00 0.00 0.00 58 1013.2
20260830154537 84 279 9.0 19.0 0.00 0.00 0.00 59 1013.1
20260830153038 83 290 8.0 16.0 0.00 0.00 0.00 60 1012.9
20260830151545 82 247 8.0 17.0 0.00 0.00 0.00 61 1012.8
20260830150036 82 248 6.0 18.0 0.00 0.00 0.00 62 1012.7
20260830150027 83 284 5.0 17.0 0.00 0.00 0.00 62 1011.6
20260830144536 82 279 9.0 20.0 0.00 0.00 0.00 61 1012.5
20260830143036 82 252 8.0 20.0 0.00 0.00 0.00 60 1012.7
20260830141536 81 272 8.0 18.0 0.00 0.00 0.00 61 1012.9
20260830140041 80 270 8.0 18.0 0.00 0.00 0.00 62 1013.1
20260830140016 80 283 8.0 14.0 0.00 0.00 0.00 62 1011.8
20260830134534 79 252 10.0 21.0 0.00 0.00 0.00 62 1013.1
20260830133033 79 297 7.0 17.0 0.00 0.00 0.00 62 1013.1
20260830131610 78 277 6.0 14.0 0.00 0.00 0.00 64 1013.2
20260830130042 77 246 7.0 15.0 0.00 0.00 0.00 64 1013.3
20260830130017 78 246 8.0 14.0 0.00 0.00 0.00 64 1012.2
20260830124542 77 256 7.0 14.0 0.00 0.00 0.00 64 1013.3
20260830123038 77 280 6.0 14.0 0.00 0.00 0.00 64 1013.3
20260830121534 76 263 5.0 12.0 0.00 0.00 0.00 64 1013.4
20260830120039 77 267 4.0 9.0 0.00 0.00 0.00 63 1013.3
20260830120019 77 269 4.0 8.0 0.00 0.00 0.00 64 1012.3
20260830114537 77 258 4.0 11.0 0.00 0.00 0.00 62 1013.2
20260830113037 77 209 5.0 10.0 0.00 0.00 0.00 62 1013.2
20260830111535 77 265 6.0 11.0 0.00 0.00 0.00 61 1013.2
20260830110043 77 271 6.0 10.0 0.00 0.00 0.00 62 1013.4
20260830110029 78 267 6.0 9.0 0.00 0.00 0.00 62 1012.3
20260830104538 78 227 5.0 11.0 0.00 0.00 0.00 61 1013.2